Piney Island, NC

4:33 PM EDT on April 24, 2017 (GMT -0400)
Piney Island

Weather History for KNBT - May, 2012

Change the Weather History Date:

Tuesday, May 15, 2012

  Actual Average (KMRH) Record (KMRH)
Temperature  
Mean Temperature 76 °F -  
Max Temperature 82 °F 77 °F 91 °F (1962)
Min Temperature 71 °F 60 °F 50 °F (1964)
Cooling Degree Days 12    
Growing Degree Days 26 (Base 50)    
Moisture  
Dew Point 68 °F    
Average Humidity 75    
Maximum Humidity 94    
Minimum Humidity 58    
Precipitation  
Precipitation 0.31 in - - ()
Sea Level Pressure  
Sea Level Pressure 30.01 in    
Wind  
Wind Speed 10 mph (South)    
Max Wind Speed 16 mph    
Max Gust Speed 24 mph    
Visibility 9 miles    
Events Rain    
Averages and records for this station are not official NWS values.
T = Trace of Precipitation, MM = Missing Value Source: NWS Daily Summary

Daily Weather History Graph

Daily Weather History Graph

Search for Another Location

Airport or City:

Trip Planner

Search our weather history database for the weather conditions in past years. The results will help you decide how hot, cold, wet, or windy it might be!

Date:

Astronomy

May. 15, 2012 Rise Set
Actual Time 6:01 AM EDT 8:02 PM EDT
Civil Twilight 5:33 AM EDT 8:31 PM EDT
Nautical Twilight 4:59 AM EDT 9:05 PM EDT
Astronomical Twilight 4:22 AM EDT 9:42 PM EDT
Moon 2:52 AM EDT (5/15) 3:28 PM EDT (5/15)
Length of Visible Light 14h 57m
Length of Day
14h 01m
Waning Crescent, 24% of the Moon is Illuminated
May 15
Waning Crescent
May 20
New
May 28
First Quarter
Jun 4
Full
Jun 11
Last Quarter

Hourly Weather History & Observations

Time (EDT) Temp. Heat Index Dew Point Humidity Pressure Visibility Wind Dir Wind Speed Gust Speed Precip Events Conditions
12:56 AM 75.0 °F - 66.0 °F 73% 30.04 in 10.0 mi South 9.2 mph - N/A   Mostly Cloudy
1:56 AM 73.9 °F - 66.0 °F 76% 30.03 in 10.0 mi South 9.2 mph 17.3 mph N/A   Partly Cloudy
2:56 AM 73.0 °F - 68.0 °F 84% 30.03 in 10.0 mi SSW 9.2 mph - 0.05 in   Mostly Cloudy
3:31 AM 73.4 °F - 69.8 °F 88% 30.01 in 2.0 mi SW 12.7 mph 19.6 mph 0.14 in Rain Heavy Rain
3:40 AM 71.6 °F - 69.8 °F 94% 30.01 in 3.0 mi WSW 12.7 mph - 0.20 in Rain Heavy Rain
3:56 AM 73.0 °F - - N/A% 30.01 in 10.0 mi SW 8.1 mph - 0.20 in   Overcast
4:56 AM 71.1 °F - - N/A% 30.01 in 10.0 mi South 4.6 mph - N/A   Partly Cloudy
5:56 AM 72.0 °F - - N/A% 30.03 in 10.0 mi South 10.4 mph 16.1 mph 0.00 in   Mostly Cloudy
6:11 AM 73.4 °F - - N/A% 30.02 in 10.0 mi South 8.1 mph - N/A   Overcast
6:56 AM 73.0 °F - 70.0 °F 90% 30.03 in 10.0 mi South 9.2 mph - N/A   Overcast
7:56 AM 73.9 °F - 68.0 °F 82% 30.03 in 10.0 mi South 6.9 mph - N/A   Clear
8:56 AM 79.0 °F - 70.0 °F 74% 30.04 in 10.0 mi South 11.5 mph - N/A   Scattered Clouds
9:56 AM 79.0 °F - 69.1 °F 72% 30.04 in 9.0 mi SSW 12.7 mph - N/A   Mostly Cloudy
10:56 AM 81.0 °F 83.8 °F 68.0 °F 65% 30.04 in 10.0 mi South 11.5 mph - 0.01 in   Scattered Clouds
11:56 AM 82.9 °F 86.5 °F 69.1 °F 63% 30.04 in 10.0 mi South 12.7 mph - 0.00 in   Scattered Clouds
12:56 PM 81.0 °F 84.1 °F 69.1 °F 67% 30.02 in 10.0 mi South 10.4 mph 19.6 mph N/A   Mostly Cloudy
1:56 PM 82.9 °F 86.5 °F 69.1 °F 63% 30.01 in 10.0 mi South 16.1 mph 24.2 mph N/A   Mostly Cloudy
2:06 PM 82.4 °F 86.3 °F 69.8 °F 66% 29.99 in 10.0 mi South 13.8 mph 23.0 mph N/A   Mostly Cloudy
2:56 PM 80.1 °F 83.2 °F 70.0 °F 71% 29.99 in 10.0 mi South 11.5 mph - 0.00 in   Mostly Cloudy
3:56 PM 82.9 °F 86.5 °F 69.1 °F 63% 29.99 in 10.0 mi SSW 13.8 mph 23.0 mph 0.00 in   Scattered Clouds
4:20 PM 82.4 °F 86.3 °F 69.8 °F 66% 29.98 in 10.0 mi South 10.4 mph - N/A   Mostly Cloudy
4:46 PM 82.4 °F 84.6 °F 66.2 °F 58% 29.98 in 10.0 mi SSW 15.0 mph - N/A   Mostly Cloudy
4:56 PM 82.0 °F 84.5 °F 66.9 °F 60% 29.99 in 10.0 mi SSW 13.8 mph 19.6 mph N/A   Partly Cloudy
5:39 PM 75.2 °F - 66.2 °F 73% 29.99 in 10.0 mi North 13.8 mph 20.7 mph N/A   Mostly Cloudy
5:47 PM 73.4 °F - 64.4 °F 73% 29.99 in 10.0 mi North 11.5 mph 17.3 mph N/A   Mostly Cloudy
5:56 PM 73.9 °F - 64.9 °F 73% 30.00 in 10.0 mi NE 10.4 mph 18.4 mph N/A   Mostly Cloudy
6:27 PM 73.4 °F - 66.2 °F 78% 29.99 in 10.0 mi NE 6.9 mph - N/A   Overcast
6:51 PM 73.4 °F - 68.0 °F 83% 29.98 in 3.0 mi East 5.8 mph - 0.05 in Rain Rain
6:56 PM 75.0 °F - 68.0 °F 79% 29.99 in 4.0 mi East 6.9 mph - 0.05 in Rain Light Rain
7:56 PM 73.9 °F - 66.9 °F 79% 29.98 in 10.0 mi SSE 6.9 mph - 0.00 in   Clear
8:56 PM 73.9 °F - 68.0 °F 82% 30.01 in 10.0 mi South 3.5 mph - N/A   Clear
9:56 PM 73.0 °F - 68.0 °F 84% 30.01 in 10.0 mi South 3.5 mph - N/A   Partly Cloudy
10:56 PM 73.9 °F - 69.1 °F 85% 30.01 in 10.0 mi South 8.1 mph - N/A   Clear
11:56 PM 73.9 °F - 68.0 °F 82% 30.01 in 10.0 mi South 6.9 mph - N/A   Clear